Theta_e
309 312 312 314 314 314 314 313 314 316 315 315 315 316 316 313 315 315 309 312 312 312 312 313 313 313 314 314 318 319 320 321 321 321 321 321 321 321 319 318 318 317 315 316 315 316 314 314 313 313 311 311 311 312 312 313 312 311 311 311 310 310 310 308 306 306 304 288 289 290 290 292 289 291 292 290 288 288 290 288 286 285 286 286 287
308 311 310 312 312 313 312 312 314 313 313 313 314 315 315 314 312 308 311 312 310 312 311 311 311 312 313 314 315 317 319 320 320 320 319 318 317 318 316 313 312 312 311 312 310 309 309 310 310 309 308 309 310 311 311 311 310 309 308 308 310 309 309 309 307 306 306 292 290 287 288 289 291 288 291 289 288 287 287 287 285 285 286 286 285
306 306 307 308 309 310 310 310 310 309 311 312 311 312 311 305 306 309 309 307 305 309 309 309 310 311 312 312 314 314 316 316 316 316 316 315 314 314 314 312 312 311 310 309 309 307 306 306 307 307 306 306 308 309 309 309 307 307 308 308 309 310 308 307 307 303 302 302 293 290 287 288 290 289 289 290 289 288 287 287 286 285 285 285 285
301 302 303 305 306 304 306 305 305 306 307 308 308 307 306 306 303 307 307 303 306 303 303 307 307 308 309 309 309 310 311 311 312 312 315 314 313 315 313 312 312 311 310 309 308 307 308 305 306 306 304 306 306 306 305 302 302 303 304 305 304 306 306 299 303 305 301 301 292 291 288 288 288 287 287 287 287 287 287 287 286 285 285 285 284
296 298 298 300 297 299 300 300 304 304 305 304 304 303 304 304 302 305 303 303 304 301 299 300 303 304 306 307 308 307 309 310 312 311 311 310 311 311 311 310 308 308 309 309 303 305 304 305 306 306 305 304 303 302 303 302 302 302 302 301 299 300 296 295 294 293 296 297 295 287 287 287 286 285 286 286 285 285 285 285 285 285 285 285 285
292 294 294 296 297 296 298 298 302 304 303 302 303 302 301 301 300 299 301 305 300 300 302 300 302 303 304 305 306 306 306 307 308 309 308 305 303 304 305 305 306 305 304 304 304 304 305 305 305 304 303 303 303 303 302 301 299 296 295 295 294 293 293 291 291 292 292 295 296 294 285 286 284 284 285 286 285 284 284 284 284 285 284 283 283
290 292 292 294 296 295 296 298 299 300 300 300 298 298 298 298 298 299 297 302 301 300 299 301 299 302 303 304 304 304 305 303 304 304 304 304 304 304 303 302 302 301 302 302 302 301 301 301 302 301 302 301 302 302 301 298 298 296 296 295 293 292 291 291 290 290 290 290 290 290 290 286 285 285 283 285 285 285 285 284 284 285 283 283 283
289 291 290 291 293 295 295 293 294 295 296 297 298 298 297 296 297 298 296 300 301 301 301 301 298 297 299 300 301 300 302 301 300 300 302 303 302 302 302 302 301 299 298 298 298 298 299 299 299 299 299 300 300 300 298 299 296 295 292 292 291 291 292 290 290 289 290 290 290 290 287 286 285 284 284 284 284 284 284 285 284 285 283 283 283
289 291 291 292 293 292 291 292 293 294 295 297 297 297 297 297 297 296 296 299 299 299 298 298 296 295 293 295 296 295 298 300 301 300 300 299 300 301 301 300 299 298 297 295 294 295 295 295 295 295 294 293 293 294 295 296 298 295 291 292 291 291 290 290 289 288 288 288 288 288 287 286 286 285 283 283 284 286 285 284 284 285 283 282 282
290 291 292 293 291 290 291 293 294 294 295 296 297 297 297 296 296 295 296 296 295 294 295 295 298 298 297 293 294 295 298 299 295 296 297 301 300 300 299 297 296 296 294 292 291 291 292 292 292 290 291 291 291 292 293 293 294 297 295 292 291 290 290 289 289 288 288 288 289 289 288 288 288 286 286 286 286 284 284 284 283 284 281 281 282
290 291 293 291 290 290 292 294 294 294 295 296 295 295 296 295 294 295 294 293 293 292 292 295 295 295 297 297 296 296 298 298 294 296 297 297 298 298 298 297 295 292 292 292 293 290 289 290 289 289 289 289 289 291 292 292 292 293 293 292 292 293 289 289 289 288 288 289 289 289 289 289 289 287 286 286 284 285 285 284 284 282 281 281 282
291 292 292 289 290 292 293 293 293 294 294 295 294 293 293 293 294 294 293 292 291 290 292 294 294 293 295 294 296 296 296 294 295 296 296 296 295 296 296 296 294 293 290 291 290 289 289 289 288 289 289 290 289 289 290 290 291 291 291 291 291 292 292 291 289 288 287 288 288 288 288 288 288 287 285 284 284 284 284 283 283 283 282 281 281
291 291 290 290 291 293 293 293 294 294 294 293 292 292 292 293 293 292 293 292 290 291 293 292 293 292 294 294 294 292 292 293 294 295 295 295 295 294 294 294 293 291 290 290 290 289 288 288 288 288 289 287 287 288 289 289 289 289 289 289 290 291 292 293 291 289 288 288 288 288 289 288 287 287 286 284 285 284 283 282 282 281 281 279 280
291 291 290 291 292 293 293 293 293 293 292 292 292 292 292 293 292 292 291 290 292 292 291 291 292 292 293 294 294 293 293 293 294 294 294 295 295 295 294 293 292 291 290 290 289 289 289 289 289 288 288 288 288 289 289 289 288 288 288 288 288 287 289 290 290 288 288 289 288 288 288 286 287 285 284 285 284 284 282 282 280 277 276 278 276
291 291 291 291 292 293 294 293 293 292 291 291 291 292 292 292 291 291 291 291 292 292 291 291 291 291 291 291 292 292 293 293 294 294 294 295 295 294 293 292 290 289 289 289 289 289 289 289 289 289 288 288 288 288 288 288 288 287 286 286 286 286 286 286 286 286 286 285 284 284 285 284 283 283 282 283 284 284 282 280 279 277 274 273 272
291 291 291 292 292 293 293 293 292 292 291 291 291 291 292 292 291 290 290 291 290 290 290 291 291 290 290 290 291 291 290 292 292 293 294 295 295 293 291 290 289 289 288 288 288 289 289 289 289 290 288 287 287 289 288 288 287 286 286 285 284 283 282 284 286 286 283 281 281 282 283 283 285 282 282 281 280 278 276 273 274 272 273 274 275
291 292 292 293 293 293 293 293 292 292 291 291 291 291 291 291 291 290 290 290 290 290 291 291 291 291 290 290 290 291 290 290 291 292 293 294 294 290 290 290 289 289 289 288 288 288 288 289 289 289 288 287 287 290 290 288 286 286 286 285 283 282 283 281 284 287 287 287 287 286 286 286 286 287 287 287 282 277 274 274 273 271 271 272 273
292 292 293 293 293 293 293 293 292 291 291 290 291 291 291 290 290 290 291 290 290 291 291 290 290 290 290 290 290 291 291 289 291 292 293 293 292 291 290 290 289 289 288 287 287 287 287 286 287 288 288 287 288 290 290 287 286 285 285 284 283 281 281 279 278 277 285 286 286 287 287 287 287 288 288 288 287 282 277 276 272 274 273 272 273
291 292 293 294 293 292 292 292 292 291 290 291 291 290 290 290 290 289 290 290 290 290 290 290 289 289 289 290 288 291 291 289 290 292 292 293 291 290 290 290 289 288 288 286 286 286 285 285 286 287 287 287 289 290 291 287 286 285 285 283 281 279 278 274 277 278 278 278 276 275 277 277 276 278 281 288 288 284 278 275 274 274 273 273 273
293 294 294 292 290 290 291 290 291 290 290 290 289 289 289 289 289 289 290 290 291 290 289 290 290 289 288 288 289 290 290 289 288 291 292 292 292 289 289 290 289 288 287 287 285 285 285 285 285 288 289 289 290 290 290 288 285 284 284 282 280 279 278 276 277 279 278 279 276 274 274 272 273 274 274 276 279 279 278 274 274 275 273 273 273
293 291 290 290 289 290 290 290 290 290 289 288 288 288 289 289 289 289 289 290 290 290 289 289 289 289 288 288 288 288 290 290 288 290 291 292 292 290 288 289 289 288 287 287 286 286 285 284 284 286 289 289 289 290 290 290 287 283 283 283 283 282 280 277 278 281 276 275 273 272 272 272 272 270 271 272 274 275 276 277 274 275 274 272 272
291 289 289 289 289 289 289 289 289 289 288 287 288 288 288 289 288 288 289 289 289 289 288 289 289 289 288 287 288 288 288 288 289 289 291 292 292 291 289 289 289 289 287 287 287 286 286 285 284 285 288 289 289 289 290 290 289 284 284 286 286 285 279 276 276 277 275 274 273 272 273 273 273 272 273 273 274 275 273 273 274 272 272 273 273
289 289 289 288 288 288 288 289 289 289 288 288 288 288 288 288 288 288 288 288 288 288 288 288 289 289 288 288 288 288 288 287 288 288 289 291 291 291 291 289 290 288 288 287 287 287 287 286 285 285 287 287 288 289 289 290 289 286 287 287 287 286 280 275 276 276 275 274 275 274 273 272 273 272 272 272 272 272 273 273 273 273 272 272 273
288 288 288 288 288 288 288 288 288 288 288 288 288 288 288 288 288 289 289 289 289 289 290 289 289 289 289 289 287 288 287 288 287 287 288 290 291 291 291 291 290 288 288 288 287 287 286 285 285 285 286 287 288 289 289 289 287 288 289 288 287 284 277 275 273 274 273 272 272 271 271 270 270 270 271 271 272 272 272 272 272 271 270 270 271
287 287 287 287 288 288 287 287 287 288 288 288 288 288 288 287 288 288 288 289 290 290 290 290 290 290 290 289 289 288 287 287 287 287 287 288 290 291 291 291 290 289 288 287 287 286 286 286 286 286 286 287 287 288 288 288 288 288 288 288 284 277 274 273 272 271 270 270 270 270 269 270 272 272 271 270 270 270 269 268 268 268 268 268 269
287 287 287 287 287 287 287 287 287 288 288 288 288 289 288 288 289 289 289 289 290 290 290 290 290 289 290 290 290 288 287 287 287 287 286 286 288 289 290 289 288 288 287 287 286 286 287 286 286 286 286 286 285 284 282 283 285 285 286 284 278 275 273 272 270 271 271 269 270 270 271 271 272 273 272 271 271 270 269 268 268 267 266 267 267
287 287 287 287 286 286 287 287 287 287 287 288 289 289 289 289 289 288 289 289 290 290 291 290 289 289 290 290 290 288 287 287 287 287 286 286 287 287 288 288 287 286 286 285 285 285 285 285 284 284 283 284 283 283 282 281 277 275 271 272 274 274 273 274 275 274 273 273 272 272 274 274 274 273 272 272 272 270 271 271 271 270 269 268 267
287 288 288 287 286 286 287 286 287 287 287 288 288 288 289 289 289 289 289 290 290 290 291 290 290 290 290 291 289 288 288 287 287 287 286 287 287 287 287 287 287 287 285 284 284 283 282 283 282 280 279 278 276 274 272 271 271 271 271 271 274 276 278 278 278 277 277 277 276 276 274 273 273 273 272 272 272 272 273 272 271 270 270 268 267
287 286 286 286 286 286 286 287 287 287 287 288 289 289 289 289 289 289 290 290 291 291 291 291 291 291 291 290 289 288 288 288 288 289 287 287 286 286 286 286 286 286 285 283 279 279 279 279 278 277 277 276 273 271 269 270 270 269 270 272 275 278 278 278 277 277 277 277 277 276 276 275 274 273 273 272 272 272 272 271 272 270 270 269 269
284 286 286 286 286 286 286 286 286 286 287 287 288 288 287 288 289 290 290 289 289 289 289 290 291 291 290 291 291 290 290 290 288 288 287 287 287 287 286 286 286 284 284 285 282 279 278 278 277 276 273 272 271 270 269 268 269 268 269 274 274 277 278 278 278 278 278 277 277 276 276 275 274 274 273 272 273 272 272 273 270 270 268 268 268
285 285 285 286 286 286 286 286 286 286 286 287 287 287 288 288 288 288 289 288 289 289 289 290 290 289 290 290 288 290 288 286 287 287 287 287 287 287 287 286 285 285 286 282 279 279 276 277 273 271 271 270 270 270 269 268 268 267 267 267 268 273 276 276 276 277 277 276 276 275 275 275 274 274 273 273 272 272 270 270 269 269 268 268 267
286 286 286 285 285 285 285 285 285 285 286 286 287 287 287 287 288 288 288 288 288 288 289 289 289 289 289 289 287 286 286 286 286 286 286 286 286 286 286 286 286 286 285 285 278 275 275 275 272 271 270 270 269 268 267 267 267 268 266 267 268 268 271 272 273 273 273 273 274 274 274 273 273 273 273 273 272 270 268 268 268 268 268 267 267
286 286 285 284 284 285 285 285 285 285 286 286 287 287 287 287 287 286 286 287 287 288 288 289 288 288 289 288 288 288 287 287 286 286 285 285 285 285 286 286 286 286 285 280 277 274 272 273 273 270 271 271 269 269 268 268 267 267 267 268 268 268 269 269 270 268 269 270 272 273 273 273 273 272 272 272 271 269 269 269 269 269 268 267 268
285 285 284 284 284 284 285 285 285 285 286 286 286 286 287 287 287 287 285 283 285 286 287 288 288 288 288 288 287 287 287 286 286 285 285 285 285 286 286 285 286 286 283 276 275 274 272 272 272 271 271 270 269 268 268 267 268 268 268 268 268 267 269 267 268 269 268 270 271 271 271 271 272 272 271 271 271 270 270 270 270 268 268 269 268
283 281 281 282 284 284 284 284 284 285 285 285 286 286 287 287 286 286 286 284 284 284 285 286 286 288 288 287 287 287 287 286 286 285 285 285 286 286 286 283 282 282 277 273 275 274 273 273 273 272 271 271 270 271 270 269 268 269 269 268 267 267 267 268 268 268 268 269 269 270 270 270 271 272 271 271 270 270 270 270 270 270 269 268 269
282 282 281 282 284 283 283 284 284 285 285 285 286 286 286 286 286 286 286 285 285 285 282 282 282 285 286 286 286 286 286 286 286 286 285 286 286 286 281 281 281 279 276 274 274 274 275 274 273 272 271 271 270 269 269 269 269 269 269 270 270 270 270 270 270 269 269 270 270 271 271 270 271 271 271 271 271 271 271 271 270 270 270 269 269
281 281 281 281 281 281 282 283 283 284 284 284 285 286 286 286 286 286 285 285 284 283 282 279 280 281 283 282 284 285 285 285 285 285 285 285 286 283 279 280 280 278 276 274 273 273 273 273 273 272 271 271 270 270 269 269 269 270 272 271 272 272 272 272 273 273 272 270 270 270 270 270 270 269 270 270 271 271 270 270 270 270 270 270 271
279 281 281 279 278 280 280 281 282 283 284 284 285 286 286 286 285 285 284 284 282 281 279 279 280 280 280 280 281 282 283 283 284 284 284 285 281 277 277 277 278 277 275 274 274 274 274 271 271 271 270 271 271 270 271 271 272 272 273 273 274 274 276 274 274 272 271 270 269 269 269 269 269 270 270 269 269 269 270 271 270 270 270 271 270
275 277 278 280 280 280 280 281 281 283 284 284 285 285 284 284 283 283 283 282 280 279 278 279 279 279 279 279 279 280 280 279 279 278 278 277 275 275 276 276 277 276 275 274 274 274 273 272 273 273 273 274 274 274 274 274 274 273 274 273 273 272 272 270 269 269 269 269 270 270 270 270 271 271 271 270 270 270 270 270 270 269 267 267 268
275 274 276 279 279 280 281 281 282 283 283 283 284 284 283 282 282 282 281 280 279 278 278 278 277 278 278 278 279 279 279 277 276 275 274 273 273 274 275 275 275 274 274 273 273 273 273 273 273 272 271 271 271 270 270 270 270 269 269 270 270 270 270 270 270 270 270 270 270 270 270 270 269 269 268 268 269 269 270 269 270 269 268 268 269
276 275 275 278 279 281 280 281 281 282 282 282 283 282 282 281 281 280 280 279 278 277 277 277 277 276 276 277 279 279 278 275 273 273 273 272 272 273 274 274 273 273 273 272 271 271 270 270 269 269 269 268 268 268 268 268 268 268 268 268 268 268 267 267 267 267 267 267 267 267 268 268 268 268 268 270 271 271 270 270 270 269 269 268 267
278 277 277 278 279 280 280 280 280 280 280 280 281 281 280 280 280 279 278 278 276 276 275 274 273 273 275 277 278 278 274 273 273 272 271 271 271 270 270 271 271 271 271 269 269 268 267 267 267 267 267 267 267 266 266 266 266 266 266 266 266 266 266 266 266 265 266 266 266 266 266 267 267 267 267 268 266 266 266 266 267 267 267 266 264
277 278 278 278 279 279 279 279 279 279 279 279 279 277 278 279 278 278 277 276 275 275 274 272 271 273 275 277 276 274 271 271 270 270 269 269 268 268 268 268 268 267 267 266 267 267 267 266 266 266 266 266 266 266 265 265 265 265 265 265 265 265 265 266 266 266 265 265 264 265 264 263 264 263 263 264 265 266 266 267 267 266 267 267 267
277 277 277 277 278 278 278 279 278 278 279 278 277 277 277 277 277 276 276 275 274 273 273 272 272 272 272 273 272 270 269 268 268 267 267 267 266 266 265 265 265 265 265 265 265 266 266 265 264 264 264 264 264 264 264 264 264 264 264 264 265 265 264 263 263 263 263 262 263 263 262 262 263 263 263 264 264 265 265 266 266 267 267 266 266
277 277 276 276 276 277 277 277 277 277 276 276 276 276 275 276 276 275 274 273 273 272 272 272 271 271 270 269 269 268 268 267 267 266 266 265 264 264 265 264 264 264 264 264 265 265 265 264 264 264 263 263 263 263 263 263 263 263 263 263 263 263 262 261 261 261 261 261 261 261 262 262 261 261 262 263 263 263 263 263 263 264 264 265 264
277 276 276 276 275 275 275 275 274 275 275 275 274 274 274 274 274 274 273 272 272 271 270 270 270 270 269 268 268 267 267 266 266 265 265 265 264 264 264 264 264 264 264 264 264 264 264 264 264 263 263 263 263 262 262 262 262 262 262 262 262 262 261 260 260 260 260 260 259 260 261 262 261 262 262 262 262 262 262 263 263 263 263 263 264
276 276 275 275 275 274 274 273 273 273 274 273 273 273 273 273 272 272 272 271 271 270 270 270 269 268 268 268 267 267 267 266 266 265 265 264 264 264 264 263 263 263 263 263 263 264 263 263 263 263 263 262 262 262 262 262 262 262 261 261 261 260 259 259 260 260 259 259 261 260 260 261 260 260 261 262 261 262 262 261 261 260 260 261 262
275 275 274 274 274 273 272 273 272 271 272 272 272 272 271 271 271 271 270 270 269 269 269 269 268 268 268 267 267 267 266 266 265 265 264 264 264 264 264 263 263 263 263 262 263 262 262 262 262 262 262 262 262 262 261 261 261 260 260 259 259 259 260 261 260 260 260 260 260 259 259 259 259 260 261 261 261 261 260 260 261 261 261 261 261
274 274 273 273 273 272 272 272 272 272 271 271 271 271 271 271 270 270 270 269 269 269 269 268 267 267 266 266 266 265 265 264 264 264 264 264 263 263 263 263 263 262 262 262 262 261 261 261 262 262 261 261 261 261 261 260 260 260 260 259 260 263 263 263 262 260 261 259 258 258 257 257 258 258 260 260 260 260 260 260 260 260 261 261 261
273 273 272 272 272 272 272 272 272 272 271 271 271 270 270 270 269 269 269 269 268 268 267 267 266 266 266 265 265 265 264 264 264 263 263 263 263 263 262 262 262 262 262 261 261 261 261 261 261 261 261 260 260 260 260 259 259 259 259 259 262 263 263 262 262 262 261 259 258 257 257 257 256 256 257 257 257 258 258 259 259 260 260 259 260
271 272 272 272 272 272 272 271 271 271 271 271 270 270 269 269 268 268 268 267 267 266 266 266 266 265 265 265 265 265 264 264 263 263 263 262 262 262 262 262 261 261 261 261 260 260 260 260 260 260 260 260 260 259 259 258 258 258 260 262 263 262 262 262 261 262 262 261 258 257 257 257 256 255 256 256 256 256 259 259 260 260 259 260 260
Wind_Speed
7 9 8 10 10 11 10 8 10 9 9 9 10 10 9 8 9 8 5 9 8 8 9 8 8 8 8 8 9 8 8 7 7 7 8 8 9 9 7 6 7 8 6 7 6 8 9 9 7 7 5 5 6 6 6 7 6 6 5 5 7 7 8 9 11 12 6 2 0 1 1 4 3 6 7 6 5 5 6 4 3 5 6 5 5
9 10 9 9 10 10 9 8 9 8 9 9 10 10 9 9 7 5 9 9 8 9 8 7 7 7 8 8 8 8 8 8 8 8 8 7 7 6 6 6 6 6 5 7 6 5 5 6 6 5 5 6 6 6 7 7 7 7 7 7 8 9 8 9 10 9 11 1 1 2 1 2 4 2 7 6 6 4 6 4 3 4 5 4 5
8 7 7 8 9 9 9 9 8 8 10 9 10 10 8 6 6 9 9 7 6 7 7 7 7 7 8 8 7 7 8 7 6 7 7 7 7 6 5 5 6 6 6 6 6 5 4 4 5 4 4 5 5 6 6 7 6 7 8 8 10 10 8 10 9 8 9 8 3 3 3 2 6 3 4 3 1 2 5 5 5 3 3 4 5
7 7 7 9 9 8 8 7 8 8 10 9 9 7 6 6 6 8 7 5 7 5 4 5 6 7 7 7 7 7 7 7 7 6 8 8 8 8 6 6 6 6 6 6 6 6 7 5 5 4 4 4 5 5 5 4 4 5 6 6 6 8 7 4 7 8 7 8 2 5 3 5 3 1 2 2 2 2 2 0 1 3 3 4 6
6 7 7 8 7 8 7 7 9 9 9 7 7 6 7 7 6 7 6 6 5 5 4 4 6 6 7 7 7 7 7 8 8 7 7 6 7 6 6 6 6 6 6 6 6 5 4 4 4 4 4 5 4 4 5 6 5 5 6 5 5 6 4 2 4 4 5 6 4 1 1 2 1 2 3 4 1 1 1 3 4 6 6 5 4
6 6 7 8 8 8 8 7 10 10 8 7 7 7 7 7 7 5 6 7 5 5 7 6 7 7 7 7 7 7 6 7 7 7 6 5 5 5 5 6 6 6 5 5 5 5 4 4 4 4 5 5 6 5 5 6 5 5 5 5 5 3 3 4 3 4 4 7 5 4 1 1 2 2 0 2 4 4 3 4 3 5 6 5 4
6 7 7 8 7 8 8 10 8 7 7 7 6 6 7 6 7 7 6 7 7 7 7 7 7 7 7 7 7 7 7 6 6 6 6 6 6 6 6 6 5 5 4 5 4 4 4 4 4 4 4 4 4 5 5 4 4 5 5 5 3 3 4 4 2 3 3 4 4 3 1 2 1 1 0 1 2 4 6 4 6 4 4 6 7
7 7 7 7 8 9 9 6 6 7 6 6 7 7 6 6 6 6 6 8 8 8 8 7 6 6 6 7 6 6 6 7 6 5 6 6 6 6 6 6 5 5 4 4 4 4 4 5 5 5 4 4 5 4 4 5 3 5 4 3 3 5 5 4 3 4 4 4 5 3 0 1 2 3 2 3 2 5 6 5 8 6 6 5 6
7 7 7 8 10 8 6 6 5 6 6 7 7 7 7 7 6 7 7 7 7 6 6 6 6 5 4 4 5 5 6 6 6 6 6 5 6 6 6 6 5 5 4 4 4 4 4 5 5 3 2 4 6 6 6 7 5 5 4 5 5 6 4 4 3 3 3 3 5 2 2 2 4 5 5 5 7 5 2 6 6 5 2 3 6
8 8 9 10 6 6 6 6 7 7 8 9 8 7 7 7 7 7 7 6 6 5 5 5 6 6 5 4 4 5 6 5 7 10 9 7 5 5 4 5 5 5 5 4 4 4 4 1 1 4 5 6 7 7 8 9 9 5 4 5 6 5 4 4 3 4 4 4 6 4 4 6 6 7 6 5 4 2 3 5 6 3 1 4 4
8 9 11 7 6 6 7 8 7 9 9 7 7 7 8 7 7 7 7 6 6 6 6 6 6 5 6 5 5 6 6 5 9 9 10 9 6 4 5 5 5 4 4 4 6 3 1 2 3 4 4 4 4 6 4 4 4 4 6 9 8 8 5 5 5 6 5 5 3 4 5 6 5 4 5 5 4 6 6 4 4 2 5 5 8
9 9 6 5 7 8 8 8 9 9 8 9 8 7 7 7 8 8 7 7 6 5 6 6 5 5 6 5 6 6 5 7 9 10 9 9 8 5 5 5 4 4 4 5 4 3 3 2 2 2 3 3 3 2 3 5 6 6 6 6 8 6 6 6 5 4 4 4 4 5 4 5 4 3 3 2 4 3 3 4 4 5 5 6 5
7 7 6 7 8 8 8 10 9 9 9 7 7 7 8 8 8 9 9 6 5 7 7 6 7 6 7 8 8 6 5 6 8 9 9 9 9 7 4 4 4 5 5 5 5 4 4 4 4 3 3 4 3 3 4 4 5 6 5 5 5 5 4 4 4 3 5 4 4 4 5 3 3 3 3 3 2 3 2 3 4 4 4 4 8
8 9 7 8 8 9 9 9 9 8 7 7 7 8 9 10 8 6 5 6 8 7 6 8 7 8 8 7 6 6 6 7 9 9 9 9 9 8 5 5 5 5 6 6 5 5 6 6 5 4 3 3 3 4 4 4 4 4 2 2 3 2 3 2 2 4 4 3 3 4 2 2 4 0 1 2 2 3 4 6 4 4 5 9 3
9 9 9 9 8 9 10 10 9 8 8 8 8 9 10 8 8 8 8 9 9 10 9 8 8 7 7 7 7 7 7 10 11 11 11 10 10 8 5 5 5 5 5 5 6 6 5 5 4 5 4 4 4 6 5 5 5 3 3 2 2 1 1 1 0 1 2 1 3 3 2 1 2 2 1 2 5 3 4 4 5 5 3 0 1
10 8 9 10 11 11 10 10 9 8 9 9 9 10 10 10 10 8 7 7 6 5 5 7 8 8 7 7 7 7 6 10 11 12 12 11 11 7 6 6 5 5 5 5 5 5 5 5 4 4 4 4 6 8 5 5 4 4 3 3 2 1 1 2 0 2 2 3 3 3 3 2 3 3 4 4 3 4 3 4 4 3 2 1 5
11 12 12 11 12 11 11 11 11 10 9 10 11 12 12 11 9 7 8 8 8 9 9 8 7 8 8 8 8 7 6 9 12 12 11 12 9 6 6 5 6 6 6 5 4 4 4 4 4 4 4 4 6 7 7 6 4 4 4 4 3 3 1 1 1 2 2 3 2 2 3 4 5 5 6 7 7 6 5 2 3 3 3 4 4
12 11 13 13 13 12 12 12 12 11 10 13 15 13 9 6 8 9 11 10 10 10 8 7 7 7 9 10 9 8 8 9 13 12 13 13 10 8 7 7 6 5 5 4 4 4 4 6 5 4 5 4 6 7 8 6 4 4 4 4 2 1 0 0 1 2 4 4 4 2 1 1 3 4 5 6 9 8 7 6 4 6 6 4 5
11 13 15 15 12 11 10 11 11 12 13 15 13 11 12 11 7 7 8 7 8 6 7 7 7 6 7 7 10 10 7 9 13 13 14 14 10 6 6 5 6 5 5 4 3 3 3 4 6 5 4 5 8 7 9 7 4 4 4 3 2 0 1 3 2 1 0 1 1 1 2 4 2 0 1 4 9 7 3 2 5 5 5 3 3
17 15 12 7 6 8 8 11 11 12 14 12 8 9 5 6 8 9 7 6 6 6 6 7 8 7 6 7 8 9 8 7 9 14 13 13 13 7 5 6 6 6 5 6 5 3 4 4 5 6 7 7 8 8 9 8 5 4 4 4 3 1 2 3 3 3 2 2 0 1 0 1 2 2 2 2 0 1 1 1 2 3 3 2 2
10 6 5 6 9 10 9 10 12 12 9 7 6 5 6 7 6 7 8 6 6 6 8 7 7 6 6 6 6 7 7 8 8 13 13 13 14 11 6 7 6 7 7 6 5 6 5 5 4 6 9 9 9 9 9 9 6 5 4 4 3 3 6 4 2 4 3 2 2 1 0 0 1 2 2 2 1 1 1 1 1 2 3 3 3
7 5 6 7 6 8 10 9 8 8 5 6 7 8 5 6 6 6 6 6 8 8 6 7 6 6 5 6 6 7 7 10 8 12 14 14 14 13 8 7 7 8 7 6 5 5 6 5 5 7 9 9 9 9 9 9 8 4 4 4 8 9 5 4 4 4 4 4 3 1 0 1 1 2 2 1 0 0 0 1 1 2 1 3 4
6 7 7 7 8 8 8 10 10 7 7 7 6 6 5 7 7 7 8 8 9 9 8 7 7 6 6 6 5 6 6 7 10 10 13 14 15 14 12 8 9 7 7 8 7 7 5 5 5 9 10 9 8 8 7 8 7 5 6 7 8 9 7 5 5 4 4 3 3 3 1 1 2 2 2 3 2 1 1 1 1 1 1 1 0
7 7 7 8 8 9 8 8 8 8 9 8 7 7 7 7 6 7 7 8 8 9 8 7 7 8 9 7 6 6 6 6 8 11 11 15 15 16 14 12 12 7 6 6 6 5 5 5 5 9 8 7 7 7 6 6 5 6 7 7 9 8 5 5 4 4 4 3 2 1 1 1 1 2 3 3 2 2 1 1 0 1 1 0 0
6 7 7 8 8 8 7 8 8 8 8 9 10 9 8 8 8 7 8 9 9 10 9 9 10 9 8 9 9 7 7 7 7 9 12 13 15 15 14 13 12 10 6 3 5 4 5 8 9 9 8 7 7 6 5 6 6 6 6 7 7 5 5 5 5 4 3 2 2 1 1 1 3 3 2 1 0 2 1 2 2 2 2 1 1
6 9 7 7 8 6 8 7 8 9 9 9 9 9 10 10 9 8 9 9 9 10 9 9 10 10 10 10 10 9 8 8 8 7 8 10 11 14 14 13 12 11 8 6 8 9 9 10 10 9 8 7 5 4 5 4 4 5 4 5 5 6 5 5 4 5 3 2 2 2 1 1 1 1 0 1 1 1 0 1 1 2 1 1 3
7 6 8 8 5 6 8 7 7 7 8 8 8 8 9 9 10 10 10 11 11 11 10 10 11 11 12 11 9 8 9 9 8 8 8 8 8 9 10 10 11 10 6 5 7 6 8 7 6 7 7 8 8 7 6 5 5 4 4 3 3 5 5 6 6 5 3 3 3 2 2 2 1 3 1 0 1 1 1 0 1 1 1 1 1
9 9 9 7 7 7 8 10 10 8 9 10 10 9 9 10 11 13 14 15 14 14 13 14 14 14 13 11 9 8 9 10 10 11 11 10 9 8 8 8 8 8 7 6 6 6 7 7 8 6 6 6 5 5 5 4 4 5 4 3 3 4 4 5 4 3 3 3 3 3 2 3 1 1 1 1 1 1 1 1 1 1 1 1 2
7 6 6 6 8 8 8 8 9 9 9 9 10 10 12 12 13 11 9 7 9 11 10 11 9 7 7 8 11 11 9 11 15 11 9 11 11 10 9 9 8 7 9 11 7 6 7 6 6 6 6 7 6 5 4 4 4 3 4 3 4 5 4 4 4 4 4 3 3 3 3 3 1 2 2 0 1 1 0 1 1 2 1 1 1
5 7 6 7 7 7 8 8 8 8 8 9 9 8 9 11 10 10 9 10 13 12 8 9 7 7 8 8 8 11 11 6 9 15 15 16 16 16 13 13 13 10 13 17 11 8 7 7 7 7 6 6 6 6 6 5 5 5 2 3 4 4 4 4 3 3 3 3 3 3 2 3 2 2 1 1 1 0 1 2 1 1 1 1 1
6 6 7 8 9 8 7 7 7 7 7 7 7 8 7 9 13 15 13 11 14 17 15 12 10 12 10 8 6 9 6 12 15 15 16 17 18 18 18 17 15 18 20 12 6 8 7 8 7 6 6 6 6 6 6 5 5 5 4 3 3 4 4 3 3 2 2 2 2 2 2 2 1 1 1 1 2 2 0 0 2 2 2 2 2
7 7 7 6 6 7 7 7 7 8 8 8 8 8 9 8 8 11 16 15 14 15 15 14 13 13 14 11 8 4 8 13 16 16 16 17 17 16 14 15 17 19 17 15 8 7 7 8 7 6 6 7 6 6 6 6 5 6 4 4 3 3 4 3 2 3 2 2 2 2 2 2 2 1 1 2 2 2 1 1 2 2 2 2 4
8 7 6 6 6 7 7 8 8 8 9 9 9 8 9 9 10 9 6 8 12 14 15 15 14 14 14 14 15 12 10 11 16 17 17 16 16 15 16 17 18 19 17 10 8 8 7 7 7 6 7 7 7 7 6 5 6 4 4 5 4 2 2 1 2 3 2 3 3 3 3 2 2 2 3 3 2 2 2 3 3 3 3 3 4
8 7 6 7 7 7 8 8 8 8 8 7 8 8 9 9 8 7 7 5 4 8 12 15 16 15 16 16 15 14 14 16 16 17 18 17 17 16 16 13 18 20 13 9 8 8 7 7 7 7 7 7 7 6 6 5 4 4 3 2 3 4 2 1 2 1 1 2 3 2 2 2 2 3 2 2 2 2 3 4 3 2 3 4 4
6 7 9 7 7 8 7 8 8 7 7 8 8 8 8 7 6 7 8 10 11 10 8 6 9 14 13 12 14 15 16 17 18 18 18 18 18 18 18 12 12 10 6 4 7 8 8 8 8 7 7 7 7 6 6 5 5 5 4 3 2 4 3 2 2 2 2 2 2 1 2 2 2 2 3 2 2 2 3 3 3 4 4 4 4
6 6 6 8 7 7 7 7 7 8 8 8 7 7 6 6 7 7 6 7 7 7 4 3 2 1 8 10 14 15 16 16 17 18 18 19 20 21 13 11 9 8 7 5 6 7 7 7 7 6 6 6 6 6 6 6 5 5 5 5 4 4 4 3 3 2 2 3 2 2 2 2 3 3 2 2 3 4 4 4 4 4 4 4 4
6 6 6 6 6 6 5 6 6 7 6 6 6 7 6 6 5 6 6 7 7 6 6 5 5 4 3 3 10 13 16 15 16 16 17 18 21 13 8 9 8 8 7 7 7 7 7 6 6 6 6 6 6 6 5 6 5 5 4 4 4 4 4 4 4 4 3 2 2 3 3 3 3 2 3 3 3 3 4 4 4 4 4 5 4
6 6 6 4 5 5 5 6 5 7 7 6 6 6 7 7 7 7 7 8 7 7 7 6 6 8 8 6 5 7 10 13 15 12 13 14 11 8 8 8 8 9 8 7 7 7 7 5 5 6 5 6 6 5 5 5 5 5 5 4 4 4 4 4 3 3 3 3 2 2 2 3 3 3 3 4 4 3 3 3 3 3 3 4 2
5 7 8 7 6 6 6 5 5 6 6 6 6 7 6 6 6 7 7 6 7 7 5 7 7 7 7 7 7 7 12 9 10 9 8 6 6 7 8 8 8 7 7 7 7 7 7 7 6 6 6 6 6 5 5 5 5 5 5 5 5 4 4 4 3 2 2 1 1 1 1 2 1 1 2 2 2 2 3 3 3 3 3 3 4
6 5 6 7 6 6 5 5 5 6 5 6 6 6 6 6 7 7 6 7 7 7 7 7 7 6 6 7 9 9 9 9 8 7 7 6 6 6 7 8 8 8 9 8 8 8 8 6 6 7 6 6 6 6 5 5 5 5 5 5 5 4 3 3 3 3 3 3 3 3 2 2 1 0 1 2 3 3 3 4 3 3 4 4 4
5 5 5 5 6 5 5 5 5 6 5 5 5 6 7 6 6 5 6 7 6 7 7 6 6 5 6 6 8 9 8 8 7 7 7 7 6 6 7 7 8 9 8 9 8 8 8 7 6 6 6 6 5 5 5 5 5 5 5 5 4 5 5 4 3 3 3 3 3 3 3 3 3 2 1 2 3 2 2 2 2 2 3 2 3
5 4 4 4 5 6 5 5 4 5 6 5 7 7 5 5 7 7 7 7 6 7 7 6 6 6 7 11 10 9 7 6 7 6 6 6 6 6 6 6 7 8 8 9 9 9 8 7 6 6 6 5 6 5 6 8 6 5 6 6 6 5 5 4 3 3 3 3 3 3 2 2 2 2 3 3 2 3 4 4 3 4 4 4 3
5 5 4 3 5 6 6 6 5 6 6 6 6 5 5 7 7 6 7 6 7 7 8 7 6 6 6 8 9 10 7 7 6 7 6 6 6 6 6 6 6 7 7 7 7 7 7 7 6 5 6 6 6 7 8 7 6 6 6 6 5 5 5 3 3 3 3 3 3 2 2 2 2 2 2 3 3 3 3 3 3 4 5 4 3
5 4 3 4 4 5 4 4 5 5 5 5 5 4 5 5 6 7 7 7 7 7 8 8 8 8 7 8 8 7 7 7 7 7 7 7 6 7 6 6 7 8 7 7 6 6 7 7 6 5 5 6 6 7 6 6 7 7 7 6 5 5 5 4 3 3 2 2 1 2 2 1 1 2 2 3 2 2 3 3 3 3 3 2 3
5 5 5 5 5 5 5 4 4 4 3 3 4 5 4 6 7 7 7 8 7 7 8 8 8 9 8 8 8 9 8 8 8 8 7 7 7 7 6 7 7 8 8 7 6 8 9 6 5 6 6 4 4 5 5 6 6 5 5 6 5 5 5 4 3 3 3 3 2 1 0 1 1 1 1 2 2 2 2 3 3 4 5 4 4
6 5 5 5 5 4 4 5 3 5 5 5 6 5 5 5 5 7 6 7 8 8 8 8 8 8 8 8 8 9 9 9 8 7 8 7 7 7 7 7 7 8 6 5 5 7 7 6 5 5 5 5 5 4 5 7 6 6 6 5 5 5 4 4 3 2 2 3 2 2 1 0 0 1 2 1 1 2 2 2 3 3 3 3 4
6 6 6 5 6 5 5 5 6 6 6 5 5 6 6 6 6 6 6 8 9 8 8 8 8 8 8 8 8 8 8 9 9 8 8 8 8 7 7 6 6 6 6 5 5 5 6 5 4 5 5 5 5 5 5 5 5 4 5 5 4 4 3 3 2 2 2 2 3 2 1 1 0 1 2 2 2 3 3 4 3 3 3 4 4
6 5 5 5 5 6 6 7 7 7 6 6 6 6 6 6 7 7 7 8 9 8 8 8 8 8 8 7 7 8 7 8 8 8 8 7 5 5 5 6 6 5 5 5 5 5 5 5 5 7 5 5 5 5 4 4 6 5 5 4 3 3 2 2 2 3 3 3 2 2 2 2 1 1 2 2 1 2 2 2 3 4 4 3 4
5 5 5 6 6 6 6 7 7 8 8 8 8 8 7 8 8 8 8 9 9 9 9 9 8 9 11 11 10 8 7 7 7 6 6 5 5 5 5 6 6 6 5 6 5 5 4 4 4 4 4 4 4 4 4 5 5 4 3 3 2 2 3 7 4 1 2 3 1 1 1 0 1 1 2 2 3 3 3 3 3 3 3 4 4
4 4 5 5 5 5 4 5 6 7 7 8 9 8 8 8 9 8 9 9 9 9 9 11 12 9 10 8 9 8 9 8 8 7 6 6 5 5 5 6 6 5 6 6 6 6 5 4 5 4 5 5 6 6 6 6 4 3 2 2 2 4 6 4 4 3 1 1 2 2 1 0 1 1 2 2 2 2 3 3 3 4 3 3 3
3 4 4 4 5 5 5 6 6 6 7 8 8 9 9 8 8 9 9 11 11 10 12 10 12 7 8 7 10 10 8 8 7 6 6 6 5 5 5 5 5 6 7 6 5 5 4 4 4 5 5 4 5 6 5 5 3 2 3 3 4 6 5 4 2 4 3 4 3 2 1 1 1 2 2 2 4 3 5 4 4 2 2 2 2
Wind_Direction
189 204 193 207 207 208 208 199 205 204 202 199 204 210 209 205 207 206 173 205 196 203 206 205 202 205 207 212 217 219 219 221 217 223 227 227 226 229 230 217 227 238 236 242 234 225 221 219 219 225 217 221 230 235 236 234 225 222 226 222 227 223 226 238 250 265 262 63 41 60 61 137 196 204 213 200 199 216 215 227 183 199 203 203 198
199 201 199 204 205 208 205 202 204 198 200 201 208 211 210 208 200 176 203 208 192 206 205 202 201 203 208 212 215 219 220 220 215 217 226 233 239 224 219 223 235 240 231 240 230 219 213 217 227 228 216 218 228 238 235 234 224 215 215 216 227 231 219 230 243 249 260 249 212 153 146 188 225 162 207 199 215 174 210 200 199 213 216 198 199
201 196 197 199 207 208 203 204 196 198 202 207 210 211 208 199 182 199 209 205 199 205 201 196 201 202 208 212 211 213 217 219 216 216 223 229 234 237 228 219 226 234 236 235 233 227 228 227 239 242 234 232 236 241 240 238 228 219 223 219 229 235 230 222 231 242 250 257 182 177 163 159 211 206 211 232 216 177 209 215 211 201 217 210 217
194 193 199 207 208 204 207 201 195 203 207 209 209 207 195 198 194 206 207 194 200 201 193 195 198 202 208 208 207 210 212 215 218 218 222 218 222 228 231 231 229 227 226 227 225 223 226 227 239 236 247 247 247 245 247 243 234 233 237 242 233 251 251 235 235 234 234 240 270 185 169 186 241 76 113 123 131 144 177 178 154 215 211 211 213
189 198 198 207 206 205 207 195 203 208 212 204 208 194 199 199 195 203 192 198 194 179 193 192 198 200 203 203 205 208 210 208 212 214 216 218 220 226 229 228 227 229 230 232 225 211 216 221 245 244 231 235 249 246 246 245 243 237 243 247 243 249 276 239 244 259 257 246 261 81 110 136 97 97 130 151 115 95 97 199 206 214 212 224 233
195 190 198 200 206 205 204 200 209 209 204 202 201 195 194 195 193 196 186 192 179 186 190 196 195 199 200 201 201 206 208 209 208 206 206 213 221 223 224 222 221 219 213 208 210 213 221 230 237 235 227 217 232 233 235 240 243 240 243 249 243 249 251 248 217 229 224 249 262 272 208 132 51 38 18 146 156 167 194 204 214 217 207 225 232
194 196 199 204 202 207 202 207 203 200 199 198 187 187 191 189 184 190 183 184 181 188 194 188 194 191 199 193 197 199 203 203 205 203 201 204 210 213 217 213 207 202 208 210 211 211 208 217 226 224 224 221 231 239 244 245 236 243 236 246 242 209 234 234 212 216 218 251 267 233 267 85 114 158 23 205 176 199 207 209 239 213 198 214 235
192 200 193 203 208 209 208 199 194 196 189 184 189 190 184 184 189 181 177 186 186 187 185 185 183 187 187 188 194 190 198 197 199 205 206 199 197 208 208 208 209 212 214 213 205 209 209 208 210 206 199 206 208 226 213 228 205 226 223 203 189 193 218 206 182 190 210 224 241 264 84 116 93 80 126 138 185 253 222 207 232 219 213 205 219
191 193 196 205 212 202 192 191 181 180 182 187 190 190 187 183 180 181 185 187 183 181 175 172 164 177 180 182 185 180 188 197 183 183 195 203 193 203 208 211 206 209 215 214 212 211 213 205 190 174 170 194 202 210 209 205 197 210 201 177 182 188 186 172 178 168 203 215 257 214 165 201 208 176 195 197 210 233 166 193 239 246 181 203 227
187 196 204 212 198 186 184 178 180 179 187 193 194 185 181 179 178 181 187 183 177 176 173 178 179 183 184 197 200 196 201 200 203 197 193 194 199 206 208 210 202 204 200 207 219 215 205 173 139 149 174 191 199 204 209 207 206 204 179 174 173 173 180 174 180 190 188 206 233 214 224 236 223 211 217 217 196 135 158 177 223 217 85 244 270
202 201 213 199 183 176 178 183 178 191 195 190 186 183 181 176 179 181 180 175 174 172 173 184 193 188 195 202 210 214 211 202 201 206 209 205 196 199 203 209 206 196 190 205 224 218 191 184 181 175 172 182 195 199 191 172 172 178 167 180 178 170 169 181 198 181 192 209 212 200 223 242 239 210 217 213 179 199 216 191 213 159 209 229 258
207 213 209 180 183 183 186 178 188 196 188 194 183 179 172 177 185 185 179 182 183 171 186 193 187 193 194 203 216 217 218 206 206 208 204 203 197 195 196 203 193 193 194 207 212 184 182 186 216 186 182 181 177 154 127 132 142 151 163 176 184 183 164 172 175 182 190 198 221 231 225 235 245 203 219 168 219 209 211 203 207 212 221 228 249
209 213 203 192 191 189 184 186 194 193 196 183 176 173 182 187 191 189 196 185 170 194 202 190 202 197 195 201 211 210 216 205 202 201 197 195 193 185 182 184 181 192 193 197 189 183 175 179 185 202 183 170 154 152 145 129 113 118 122 130 137 161 160 152 157 164 160 184 212 239 219 227 241 242 197 197 136 202 179 216 227 224 226 232 241
207 209 199 201 196 192 191 193 197 195 180 179 177 184 190 202 196 191 177 179 198 203 195 200 198 201 202 204 212 216 218 213 209 202 200 198 195 186 187 186 187 185 189 186 182 180 185 179 175 187 192 171 166 155 150 148 142 126 129 147 147 137 140 175 160 138 163 194 199 238 236 159 248 212 198 138 138 211 194 236 213 211 209 228 241
208 211 204 202 195 197 198 197 196 186 182 181 184 194 202 201 195 195 191 197 197 198 193 195 199 195 197 197 203 211 216 207 209 203 200 195 191 184 180 176 175 181 177 178 185 184 184 184 172 172 177 186 178 161 157 158 139 141 146 135 108 99 135 143 131 161 180 185 211 240 269 232 257 283 225 182 214 210 189 209 204 199 191 53 29
209 204 211 205 202 201 196 197 193 185 183 184 193 204 205 202 200 190 192 201 199 187 200 193 193 193 192 192 197 209 207 196 197 196 193 193 185 175 171 175 176 175 178 187 189 184 174 171 168 174 178 181 178 162 163 145 140 148 146 127 94 79 50 8 104 184 174 185 195 206 223 220 207 204 185 193 175 129 108 74 73 86 122 210 246
214 207 212 209 206 201 196 194 193 188 185 190 203 208 204 203 201 181 192 199 194 198 198 195 190 187 192 195 195 204 205 195 192 190 191 188 175 170 169 170 174 177 189 185 177 169 169 172 166 172 175 183 179 165 155 142 141 155 153 144 150 141 161 272 22 101 163 180 190 197 205 213 223 231 218 194 172 151 109 121 204 140 140 222 257
217 210 214 213 209 200 195 191 190 187 187 201 208 210 204 201 200 185 194 193 199 202 186 187 193 194 193 198 194 192 205 194 191 190 190 188 178 176 176 175 184 180 165 157 159 165 166 169 170 173 171 168 170 171 166 152 160 166 158 147 138 111 206 201 64 24 46 70 62 70 80 265 243 237 227 208 173 155 143 197 206 153 195 198 238
218 213 217 214 206 194 191 192 192 191 198 210 206 200 199 200 187 179 199 195 202 179 183 190 196 200 202 195 192 194 200 196 191 191 190 187 180 174 172 172 173 178 163 159 158 149 157 174 183 176 162 161 170 177 178 168 166 168 161 139 139 166 251 169 140 129 82 57 11 23 18 6 2 338 278 259 178 181 183 168 144 149 195 210 225
223 217 218 192 181 189 194 195 197 197 207 209 200 205 183 175 187 189 194 194 188 183 188 195 198 203 189 194 198 199 193 194 191 190 188 186 179 169 170 169 181 172 172 165 161 179 182 187 191 185 168 164 173 181 185 173 166 164 150 150 142 215 189 150 175 154 167 171 140 43 176 315 346 8 4 2 81 130 137 107 149 155 189 213 196
237 236 232 198 176 187 193 200 203 209 207 197 183 178 184 189 176 184 190 188 184 187 194 200 201 202 194 200 197 203 199 187 193 188 189 187 181 171 176 188 177 169 172 172 178 175 187 196 184 184 181 177 179 184 185 182 163 160 165 167 178 157 132 125 163 147 131 124 126 93 34 2 3 10 11 11 25 27 52 102 135 153 171 195 209
219 207 206 212 215 188 187 201 206 205 193 172 181 195 184 174 182 180 180 185 191 195 192 197 200 199 197 200 207 204 200 196 178 190 187 187 184 180 175 191 179 165 163 176 174 186 187 181 184 179 177 176 180 182 182 183 170 150 187 161 137 138 139 141 132 124 119 125 120 114 100 311 329 337 338 341 319 11 87 131 146 149 153 159 176
200 204 203 202 200 208 205 188 190 185 189 189 186 192 177 179 183 177 183 190 194 196 197 195 194 199 199 207 206 207 198 199 185 181 189 183 184 185 185 180 176 170 167 174 184 190 183 171 155 161 170 170 175 177 178 186 175 181 188 173 167 147 128 128 130 125 128 134 135 166 223 246 274 281 291 291 278 234 197 187 154 133 112 91 145
203 207 207 203 202 202 196 196 189 178 181 177 186 187 187 187 184 189 191 193 196 200 203 195 195 201 206 205 204 206 200 192 194 188 184 185 184 186 186 181 174 178 170 171 180 176 163 168 158 153 157 162 163 169 178 177 171 186 189 185 173 152 132 132 132 137 132 122 137 179 244 239 235 281 266 253 247 236 229 200 158 98 108 44 3
198 211 212 209 209 203 184 185 183 184 184 177 184 190 189 181 192 195 192 200 200 205 205 196 202 206 207 207 205 198 193 193 192 194 183 184 185 185 187 175 179 165 161 163 153 171 162 144 141 149 154 147 153 159 162 171 174 180 182 177 158 142 144 143 141 124 130 169 188 210 246 227 215 231 241 236 58 54 64 20 45 52 68 65 4
207 218 218 214 212 188 188 189 186 187 186 188 194 190 188 187 195 192 197 204 206 208 206 199 205 205 210 211 204 195 186 190 193 186 185 181 183 185 182 175 169 171 163 162 162 151 150 148 145 137 133 131 131 132 132 132 123 137 162 156 141 150 145 134 128 141 178 188 172 203 220 212 246 252 277 95 88 318 85 40 45 3 57 37 6
211 218 219 217 200 185 192 191 191 192 192 192 194 194 192 192 194 197 196 200 205 209 206 202 206 207 210 209 202 185 189 193 190 184 183 178 178 176 170 172 164 156 143 142 141 142 139 135 129 127 120 114 106 100 95 89 78 54 42 60 125 140 148 152 162 164 172 164 180 190 196 189 117 101 96 81 353 329 148 123 50 299 98 75 115
207 216 216 198 192 189 199 195 189 193 195 192 195 197 201 198 201 203 198 198 197 205 205 206 206 204 208 201 191 189 195 200 195 193 188 181 175 167 166 161 165 164 152 148 144 134 123 110 105 107 108 94 92 78 57 51 68 74 61 40 100 117 116 115 111 119 133 153 151 140 131 124 135 132 89 83 287 315 143 133 150 338 79 102 25
216 220 208 187 202 197 199 198 199 197 196 199 209 204 198 199 208 219 221 213 213 210 209 220 218 216 212 198 190 201 202 205 212 188 173 175 168 164 166 170 162 158 160 143 122 113 118 123 128 128 134 133 125 115 88 95 79 67 92 95 110 127 123 132 143 153 162 155 175 170 168 146 138 120 124 101 282 254 151 73 303 131 334 123 193
210 222 204 206 208 197 206 206 204 199 197 200 204 221 224 219 214 215 218 208 219 228 218 222 208 195 206 216 204 206 215 215 131 156 168 171 172 167 162 159 163 152 153 153 143 143 155 153 160 154 151 148 144 140 134 132 131 107 100 120 125 134 142 149 158 165 150 157 155 144 148 130 139 137 137 187 289 277 197 181 235 142 143 213 253
225 224 206 214 206 201 201 202 203 203 205 202 202 212 216 224 221 217 218 208 209 216 218 219 197 194 194 209 207 217 156 138 157 164 167 174 173 171 167 164 155 156 153 142 141 156 159 163 164 158 156 145 145 148 145 138 148 138 141 129 104 134 138 139 132 128 140 126 121 126 138 142 141 139 152 211 219 250 212 57 154 187 205 232 251
227 229 222 224 203 205 201 201 194 199 207 203 206 205 211 219 227 221 217 212 210 209 210 208 198 191 196 192 169 178 164 160 161 169 173 174 173 165 156 151 154 154 156 147 147 167 162 160 161 165 154 146 150 144 148 149 158 150 143 120 136 157 140 156 175 141 155 146 157 154 149 158 147 168 187 218 220 241 223 231 195 202 236 220 233
226 236 221 210 205 203 199 201 203 200 204 202 209 208 212 213 218 220 220 224 210 205 206 203 193 188 191 188 180 174 167 170 167 168 173 174 167 159 149 149 155 156 151 158 160 159 159 156 158 160 157 152 154 153 159 152 149 155 152 138 131 137 139 154 96 111 141 167 163 176 173 167 167 186 206 219 204 249 229 226 230 213 209 229 256
226 226 218 205 200 205 206 206 205 208 205 204 207 207 216 218 223 214 196 189 233 228 214 201 193 189 190 184 183 176 168 167 168 166 166 165 160 150 140 149 156 163 159 160 152 156 149 150 157 160 161 147 147 141 142 150 148 139 138 133 116 96 107 98 114 147 144 173 174 187 170 177 166 175 228 214 215 198 236 251 239 220 249 239 247
238 240 232 214 206 211 206 205 207 204 199 204 206 209 214 213 208 203 203 204 205 197 203 216 213 195 190 186 181 174 170 168 166 164 161 159 154 147 139 144 158 165 142 135 148 145 152 156 158 161 150 146 151 149 152 149 140 138 144 140 111 111 125 130 158 164 156 154 159 176 172 188 198 197 194 231 245 237 242 242 239 232 233 251 252
243 243 240 230 227 219 209 205 199 200 202 206 201 205 201 199 205 209 204 204 205 198 175 167 145 262 186 173 170 169 169 168 166 163 160 159 155 147 152 167 161 159 147 146 140 143 140 146 144 149 146 140 141 143 142 141 145 142 147 135 135 142 148 155 164 164 170 166 178 179 175 193 197 202 209 222 221 233 245 243 246 246 247 247 242
245 246 244 239 237 236 226 210 206 201 199 191 188 195 197 201 199 195 195 196 194 182 173 138 120 111 113 165 164 160 158 157 157 157 159 161 161 159 155 158 156 144 147 145 138 136 136 138 136 136 137 136 140 139 134 134 140 135 138 136 143 144 157 159 170 160 160 169 189 186 186 211 208 204 189 212 244 232 239 247 251 255 248 262 279
246 247 248 241 234 230 225 219 214 194 195 188 192 194 195 198 194 194 191 192 182 173 165 166 167 164 163 167 156 151 146 140 137 143 154 156 155 148 148 145 146 150 146 140 137 131 125 126 129 134 136 129 131 136 136 138 140 138 144 148 150 165 165 162 155 156 162 169 185 206 196 213 208 207 211 206 223 225 251 258 254 258 269 289 282
253 254 252 239 222 216 212 208 199 194 196 191 193 192 199 189 186 186 189 178 174 169 165 166 170 170 161 151 143 143 133 146 159 166 158 152 139 138 139 142 140 137 134 132 123 120 123 126 127 122 124 124 128 132 130 126 120 112 117 118 111 102 92 87 84 78 98 129 220 240 206 228 229 229 211 196 233 241 256 259 255 259 263 269 259
248 246 242 232 224 217 203 205 195 200 199 191 199 190 187 187 187 186 178 174 176 170 169 171 174 168 154 156 155 155 158 158 154 148 143 145 148 147 142 143 142 139 136 129 127 127 125 122 124 122 124 125 126 123 119 119 116 117 110 108 115 108 105 100 91 87 77 57 68 39 49 18 327 242 241 230 226 236 238 240 246 247 251 256 271
239 234 228 226 215 205 203 199 203 202 195 194 191 188 197 187 179 171 171 174 168 166 169 168 158 145 153 162 161 162 155 151 143 143 149 147 150 147 141 134 133 127 124 124 123 121 124 128 129 129 124 123 119 117 116 117 119 114 112 109 103 104 95 84 85 85 84 84 75 70 41 36 23 27 1 302 321 314 279 285 282 283 283 278 277
233 227 221 220 211 207 201 203 200 190 188 188 190 188 180 176 171 173 172 169 164 161 154 145 139 144 163 161 161 140 121 131 132 132 128 131 128 119 116 112 114 120 122 126 130 130 129 127 128 127 125 124 122 120 117 97 113 116 115 101 108 105 100 98 96 92 94 89 70 72 57 28 15 14 358 349 354 335 328 314 303 292 282 276 271
237 229 223 212 207 211 207 201 184 188 192 190 193 181 174 168 169 168 164 163 158 155 151 143 140 138 148 153 133 119 110 118 118 118 115 112 110 108 108 107 104 103 105 105 104 115 118 118 116 114 117 121 123 122 118 124 117 113 107 112 109 113 113 112 91 81 77 79 79 65 66 39 22 15 349 346 342 338 319 310 293 279 268 262 261
232 230 225 214 213 215 214 194 193 196 197 191 178 176 166 163 161 159 157 155 155 154 151 148 144 141 133 125 118 110 113 114 115 116 117 111 109 108 107 106 105 102 98 97 97 105 114 112 103 92 87 84 73 86 103 100 97 108 107 112 112 112 99 95 97 90 93 89 80 76 51 38 22 10 356 333 336 321 314 316 319 315 303 293 279
219 218 216 209 206 200 207 200 190 182 164 160 168 169 169 165 162 159 154 151 149 148 146 143 142 139 136 134 128 126 124 121 120 119 118 119 117 114 112 106 103 102 100 100 103 103 94 94 104 113 115 110 106 100 94 84 79 88 102 110 115 111 112 114 125 123 114 118 116 116 87 49 35 329 320 305 315 338 329 318 312 300 298 297 290
210 205 205 206 201 191 180 184 177 166 167 173 165 163 164 161 154 153 150 145 145 141 140 137 137 136 136 131 128 125 126 123 120 118 117 115 115 111 109 107 105 103 97 92 92 93 96 108 118 123 124 121 114 99 92 82 82 86 83 97 106 117 122 126 128 125 141 143 160 153 187 186 355 306 298 292 307 293 270 282 297 299 301 300 299
209 203 203 196 198 189 179 166 165 168 162 160 157 157 154 151 142 135 137 136 136 134 133 135 133 134 131 130 128 126 125 125 126 124 122 123 122 121 118 108 100 99 97 92 90 102 105 103 110 113 114 112 107 103 101 92 91 92 90 91 108 117 126 142 148 161 157 172 160 146 171 119 189 262 278 292 277 264 260 258 255 264 279 286 289
205 198 196 191 180 178 175 168 161 158 154 153 149 149 145 140 139 138 136 133 131 131 129 126 124 123 122 119 116 115 112 110 110 114 116 116 103 104 107 105 104 101 102 100 108 110 111 112 111 112 109 110 109 104 100 98 94 100 102 108 114 123 166 153 139 136 158 148 152 154 171 179 212 231 256 260 272 292 294 278 281 276 269 261 285
195 190 183 182 180 180 176 174 165 163 156 149 143 142 144 142 141 138 139 136 136 135 136 135 129 119 103 99 96 102 105 108 114 100 96 109 113 108 104 101 104 111 115 119 117 116 110 111 106 103 104 99 98 105 106 106 103 97 98 99 122 147 131 121 118 146 135 124 113 118 124 149 201 239 255 258 249 257 262 280 289 288 290 292 287
187 185 178 175 174 177 170 167 161 151 147 147 146 143 143 141 143 143 142 139 135 132 127 116 112 123 123 124 125 126 126 125 126 123 125 119 112 106 110 114 118 121 129 128 125 124 108 107 102 101 102 107 103 97 102 100 111 110 114 151 179 138 124 115 138 161 151 144 146 151 145 171 231 248 247 234 232 250 259 266 261 265 259 260 273
169 162 167 165 163 160 157 157 153 150 149 147 144 143 144 142 143 140 138 139 137 133 127 127 121 118 115 117 111 115 114 108 109 113 116 118 122 115 115 121 121 126 126 120 115 109 104 102 103 107 104 107 109 103 105 109 114 147 185 213 175 137 137 162 178 236 193 144 144 145 146 209 225 223 241 244 247 234 253 260 265 270 280 284 293